COSMOS 2251 DEB, 33785

Orbit data source: Space-Track

COSMOS 2251 DEB, 33785 is space debris in LEO originally from a launch on Wed, 16 Jun 1993 UTC launched from the Plesetsk Missile And Space Complex (PKMTR). The debris from Iridium 33, an American commercial communications satellite, has been tracked extensively since its accidental collision with the defunct Russian satellite Cosmos 2251 in 2009. This event, occurring at high speed in low Earth orbit (LEO), generated thousands of pieces of space debris, significantly increasing the risk of further collisions. The Iridium 33 debris cloud has impacted space traffic management and orbital debris mitigation strategies, making it a subject of ongoing study in space situational awareness.

Loading next visibility...
Identifier
33785, 1993-036AA
Orbit
LEO
Country
Flag of CISCIS
Related business
Manufacturer
Unknown
Mission
Spacecraft
Bus & Motor
Unknown
Mass
Unknown
Launch date (UTC)
1993-06-16 (32 years ago)
Launch vehicle
Unknown
Launch site
Plesetsk Missile And Space Complex (PKMTR)
Object type
Payload
Rocket body
Debris
Shape & HBR
Unknown shape, 0.1 m
Radar Cross Section
Small (<0.1 m²)

Expand to show TLE details & history
Last TLE update: 10 hours ago

TLE from 10 hours ago
0 COSMOS 2251 DEB
1 33785U 93036AA  25302.33341455  .00010046  00000-0  16986-2 0  9990
2 33785  73.8664 146.8906 0020625 104.7978  73.7710 14.69322527878545
Epoch: 2025-10-29T08:00Z
TLE epoch observation values (Epoch: 2025-10-29T08:00:07.017Z)
Latitude
1.05087°
Longitude
168.65093°
Altitude
661.711 km
Speed
7.529 km/s
True Right ascension
21h 46m 21s
True Declination
1° 02' 40"
Sunlit
Object was in daylight at epoch
Visualization orbit readout
Latitude
Unknown
Longitude
Unknown
Altitude
Unknown
Speed
Unknown
Apparent Right ascension
Unknown
Apparent Declination
Unknown
Sunlit
N/A
Visualization observer readout
Local Sidereal Time
13:11:10
Azimuth
Unknown
Elevation
Unknown
Doppler factor
Unknown
Orbital elements
Apogee altitude
675.352 km
Perigee altitude
646.316 km
Semi-major axis
7,038.971 km
Eccentricity
0.00206
Inclination
73.8664°
RAAN
146.8906°
Arg. of periapsis
104.7978°
True anomaly
73.99809°
Mean anomaly
73.771°
Eccentric anomaly
73.88453°
Mean motion
3.67519 °/min
Orbital period
97.95 mins
BSTAR
0.0016986

Documentation

Showing up to 5 results
|